CDT,Max TemperatureF,Mean TemperatureF,Min TemperatureF,Max Dew PointF,MeanDew PointF,Min DewpointF,Max Humidity, Mean Humidity, Min Humidity, Max Sea Level PressureIn, Mean Sea Level PressureIn, Min Sea Level PressureIn, Max VisibilityMiles, Mean VisibilityMiles, Min VisibilityMiles, Max Wind SpeedMPH, Mean Wind SpeedMPH, Max Gust SpeedMPH,PrecipitationIn, CloudCover, Events, WindDirDegrees
2013-3-1,33,25,17,19,16,12,77,63,49,30.42,30.33,30.24,10,10,5,22,14,28,T,7,Snow,1
2013-3-2,43,26,9,24,16,7,88,62,36,30.43,30.29,30.12,10,9,6,12,5,14,0.00,1,,191
2013-3-3,47,36,25,31,26,22,85,69,53,30.09,29.88,29.72,9,7,6,21,10,25,0.00,1,,142
2013-3-4,41,33,25,31,28,18,92,78,64,30.10,29.87,29.65,10,7,2,23,10,29,0.03,6,Snow,3
2013-3-5,35,26,17,17,15,12,80,64,47,30.46,30.29,30.14,10,10,10,35,18,45,0.00,4,,326
2013-3-6,41,28,15,21,17,11,84,61,38,30.50,30.40,30.27,10,10,7,15,8,17,0.00,3,,86
2013-3-7,57,41,24,27,23,18,81,56,30,30.29,30.19,30.09,10,9,7,22,11,28,0.00,0,,130
2013-3-8,62,44,25,42,33,22,88,64,39,30.19,30.04,29.91,8,6,2,24,11,31,0.14,4,Rain,126
2013-3-9,60,47,33,52,43,30,96,87,77,29.90,29.70,29.54,10,7,2,31,12,38,0.12,7,Rain-Snow-Thunderstorm,126
2013-3-10,34,28,22,31,23,17,100,92,84,30.03,29.90,29.73,8,1,0,38,24,44,0.65,8,Fog-Snow,343
2013-3-11,31,23,14,19,15,9,84,69,53,30.08,29.98,29.93,10,9,2,21,8,25,T,5,Snow,313
2013-3-12,35,24,13,22,19,13,92,74,56,30.40,30.25,30.10,10,10,7,25,11,33,0.00,2,,314
2013-3-13,41,25,8,26,18,7,92,72,51,30.51,30.41,30.27,10,9,6,12,5,14,0.00,2,,140
2013-3-14,61,45,29,40,32,21,89,68,46,30.23,30.14,30.10,10,10,8,10,3,13,0.00,0,,138
2013-3-15,65,48,30,43,37,30,96,70,43,30.08,29.85,29.73,10,9,4,20,6,25,0.00,0,,17
2013-3-16,41,34,27,39,25,21,93,78,63,30.22,30.10,29.87,10,9,4,26,14,31,0.00,8,,16
2013-3-17,48,37,25,34,25,19,96,71,46,30.17,29.96,29.75,10,9,4,18,11,23,0.03,5,Rain,115
2013-3-18,43,34,24,36,24,11,100,65,29,30.11,29.90,29.72,10,8,2,31,14,41,0.01,4,Rain,286
2013-3-19,53,39,24,30,19,16,75,50,24,30.39,30.21,30.12,10,10,10,23,8,31,0.00,2,,349
2013-3-20,40,29,17,14,9,2,74,51,27,30.47,30.35,30.14,10,10,10,20,10,22,0.00,0,,355
2013-3-21,33,27,21,20,16,10,88,64,39,30.13,30.03,29.95,10,6,0,15,9,18,0.08,7,Fog-Snow,105
2013-3-22,34,31,27,25,21,12,92,70,47,30.09,30.02,29.97,10,7,2,13,5,15,0.01,8,Snow,106
2013-3-23,37,33,29,30,26,19,92,73,54,30.14,30.08,30.03,10,4,0,22,12,25,0.08,8,Fog-Snow,33
2013-3-24,30,27,24,27,21,14,92,75,58,30.17,30.11,30.06,10,5,1,26,18,33,0.03,7,Snow,345
2013-3-25,31,28,25,22,19,17,88,73,58,30.41,30.26,30.12,10,9,2,28,17,32,T,7,Snow,334
2013-3-26,43,32,20,22,17,13,73,53,33,30.44,30.36,30.27,10,10,10,12,6,25,0.00,3,,274
2013-3-27,55,40,25,29,25,20,75,57,38,30.30,30.25,30.18,10,10,9,15,9,21,0.00,1,,127
2013-3-28,61,42,22,30,27,21,88,57,25,30.27,30.23,30.17,10,9,4,14,4,17,0.00,1,,84
2013-3-29,71,48,25,38,30,23,85,54,22,30.24,30.15,30.04,10,9,5,17,9,24,T,2,,142
2013-3-30,68,59,50,53,46,32,96,62,28,30.10,29.96,29.92,10,8,2,43,10,47,0.88,5,Rain-Thunderstorm,333
2013-3-31,60,47,33,41,32,24,89,58,26,30.18,30.03,29.96,10,9,2,29,13,38,0.06,3,Snow,341